This is the latest recevied weather packets stored in our database for station/object N1TKS. If no packets are shown the sender has not sent any weather packets the latest 1 day(s).
| Time | Temp. | Humidity | Pressure | Rain* | Wind** | Luminosity | Snow |
|---|---|---|---|---|---|---|---|
| 1778083313 | 17.78° C | 79% | 1009.6 hPa | 0 mm | - | - | - |
| 1778083018 | 17.78° C | 79% | 1009.7 hPa | 0 mm | - | - | - |
| 1778082413 | 17.78° C | 79% | 1009.7 hPa | 0 mm | - | - | - |
| 1778080444 | 18.89° C | 77% | 1010 hPa | 0 mm | - | - | - |
| 1778080055 | 18.89° C | 78% | 1010 hPa | 0 mm | - | - | - |
| 1778080014 | 18.89° C | 77% | 1010 hPa | 0 mm | - | - | - |
| 1778079713 | 18.89° C | 78% | 1010 hPa | 0 mm | - | - | - |
| 1778079497 | 18.33° C | 79% | 1009.8 hPa | 0 mm | - | - | - |
| 1778077976 | 18.33° C | 78% | 1009.8 hPa | 0 mm | - | - | - |
| 1778077617 | 18.33° C | 78% | 1009.7 hPa | 0 mm | - | - | - |
| 1778077014 | 17.78° C | 78% | 1010 hPa | 0 mm | - | - | - |
| 1778077003 | 17.78° C | 78% | 1010 hPa | 0 mm | - | - | - |
| 1778076621 | 17.78° C | 79% | 1010.2 hPa | 0 mm | - | - | - |
| 1778075857 | 18.33° C | 78% | 1010.1 hPa | 0 mm | - | - | - |
| 1778075514 | 18.33° C | 79% | 1009.9 hPa | 0 mm | - | - | - |
| 1778074696 | 16.67° C | 81% | 1009.9 hPa | 0 mm | - | - | - |
| 1778074057 | 17.22° C | 79% | 1010.2 hPa | 0 mm | - | - | - |
| 1778073714 | 17.22° C | 80% | 1010.1 hPa | 0 mm | - | - | - |
| 1778072814 | 16.67° C | 81% | 1009.9 hPa | 0 mm | - | - | - |
| 1778071314 | 16.11° C | 82% | 1010 hPa | 0 mm | - | - | - |
| 1778071016 | 16.11° C | 82% | 1010.1 hPa | 0 mm | - | - | - |
| 1778070116 | 16.11° C | 83% | 1010.3 hPa | 0 mm | - | - | - |
| 1778069814 | 16.11° C | 83% | 1010.4 hPa | 0 mm | - | - | - |
| 1778068983 | 15.56° C | 84% | 1010.6 hPa | 0 mm | - | - | - |
| 1778068983 | 14.44° C | 86% | 1010.4 hPa | 0 mm | - | - | - |
* Rain latest hour (hover to see other rain measurements)
** Current wind speed in m/s (hover to see current wind gust speed)